Back to catalog

STARLINK-5069

AliveCommunicationsVLEO
NORAD 55640·PAYLOAD·🇺🇸 United States

Launched Feb 17, 2023 from Vandenberg Space Force Base

Loading…

Next Passes (next 24 hours)

TLE

FreshSource: CelesTrak SupGP

Epoch: Sep 15, 2026, 01:47 UTC

1 55640C 23021N   26258.07479167 -.00049937  00000+0 -41849-2 0  2581
2 55640  70.0011  66.9081 0002859 269.8157 335.2626 14.98357068    12

Track STARLINK-5069 in real time with AllMySat

Download on the App Store